,,,PA_Meas_PMT16A,,PR_Meas_QMR101_102,,RH_Meas_QMH101,,SR_Meas_QMS101,,TA_Meas_QMH101,,GenWind,,GenWind,
date,time,status,PA,status,PR,status,RH,status,SR,status,TA,status,DirAvg,status,SpdAvg,
2009-08-21, 00:00:04,VALID,1012.01,VALID,0,VALID,97.6325,VALID,0,VALID,23.2441,VALID,135,VALID,0,
2009-08-21, 00:01:04,VALID,1012,VALID,0,VALID,97.6401,VALID,0,VALID,23.2459,VALID,135,VALID,0,
2009-08-21, 00:02:04,VALID,1012,VALID,0,VALID,97.6249,VALID,0,VALID,23.2654,VALID,149,VALID,0,
2009-08-21, 00:03:04,VALID,1012.02,VALID,0,VALID,97.6325,VALID,0,VALID,23.2441,VALID,151,VALID,0,
2009-08-21, 00:04:04,VALID,1011.97,VALID,0,VALID,97.6401,VALID,0,VALID,23.2459,VALID,156,VALID,0,
2009-08-21, 00:05:04,VALID,1011.95,VALID,0,VALID,97.6173,VALID,0.105969,VALID,23.2654,VALID,129,VALID,0,
2009-08-21, 00:06:04,VALID,1011.93,VALID,0,VALID,97.6401,VALID,0,VALID,23.2246,VALID,127,VALID,0.0621094,
2009-08-21, 00:07:04,VALID,1011.91,VALID,0,VALID,97.6249,VALID,0,VALID,23.2459,VALID,143,VALID,0.75625,
2009-08-21, 00:08:04,VALID,1011.92,VALID,0,VALID,97.6249,VALID,0,VALID,23.2246,VALID,143,VALID,0.571484,
2009-08-21, 00:09:04,VALID,1011.88,VALID,0,VALID,97.6249,VALID,0.105969,VALID,23.2441,VALID,145,VALID,0.530469,
2009-08-21, 00:10:04,VALID,1011.86,VALID,0,VALID,97.6249,VALID,0,VALID,23.2246,VALID,168,VALID,0.489453,
2009-08-21, 00:11:04,VALID,1011.84,VALID,0,VALID,97.6401,VALID,0.105969,VALID,23.2246,VALID,143,VALID,0.624219,
2009-08-21, 00:12:04,VALID,1011.81,VALID,0,VALID,97.6325,VALID,0,VALID,23.2441,VALID,141,VALID,0.698438,
2009-08-21, 00:13:04,VALID,1011.79,VALID,0,VALID,97.6173,VALID,0.105969,VALID,23.2051,VALID,140,VALID,0.291016,
2009-08-21, 00:14:04,VALID,1011.77,VALID,0,VALID,97.6249,VALID,0.105969,VALID,23.2264,VALID,125,VALID,0.808203,
2009-08-21, 00:15:04,VALID,1011.72,VALID,0,VALID,97.6401,VALID,0,VALID,23.2459,VALID,176,VALID,0.724219,
2009-08-21, 00:16:04,VALID,1011.73,VALID,0,VALID,97.6554,VALID,0,VALID,23.2264,VALID,167,VALID,0.532812,
2009-08-21, 00:17:04,VALID,1011.68,VALID,0,VALID,97.6325,VALID,0,VALID,23.2264,VALID,180,VALID,0.775,
2009-08-21, 00:18:04,VALID,1011.64,VALID,0,VALID,97.6096,VALID,0,VALID,23.2264,VALID,186,VALID,0.409766,
2009-08-21, 00:19:04,VALID,1011.59,VALID,0,VALID,97.6096,VALID,0.105969,VALID,23.2246,VALID,151,VALID,0.789063,
2009-08-21, 00:20:04,VALID,1011.59,VALID,0,VALID,97.6173,VALID,0,VALID,23.2459,VALID,174,VALID,0.559766,
2009-08-21, 00:21:04,VALID,1011.57,VALID,0,VALID,97.6096,VALID,0,VALID,23.2264,VALID,182,VALID,0.620703,
2009-08-21, 00:22:04,VALID,1011.56,VALID,0,VALID,97.6096,VALID,0,VALID,23.2282,VALID,184,VALID,0.705469,
2009-08-21, 00:23:04,VALID,1011.55,VALID,0,VALID,97.602,VALID,0,VALID,23.2476,VALID,167,VALID,0.440625,
2009-08-21, 00:24:04,VALID,1011.57,VALID,0,VALID,97.6325,VALID,0,VALID,23.2476,VALID,193,VALID,0.931641,
2009-08-21, 00:25:04,VALID,1011.58,VALID,0,VALID,97.5944,VALID,0,VALID,23.2476,VALID,222,VALID,0.576953,
2009-08-21, 00:26:04,VALID,1011.53,VALID,0,VALID,97.5791,VALID,0,VALID,23.2476,VALID,216,VALID,0.457812,
2009-08-21, 00:27:04,VALID,1011.52,VALID,0,VALID,97.602,VALID,0,VALID,23.2459,VALID,213,VALID,0.6375,
2009-08-21, 00:28:04,VALID,1011.49,VALID,0,VALID,97.5868,VALID,0,VALID,23.2264,VALID,214,VALID,0.592969,
2009-08-21, 00:29:04,VALID,1011.48,VALID,0,VALID,97.602,VALID,0,VALID,23.2671,VALID,208,VALID,0.553125,
2009-08-21, 00:30:04,VALID,1011.42,VALID,0,VALID,97.5639,VALID,0,VALID,23.2654,VALID,200,VALID,0.634375,
2009-08-21, 00:31:04,VALID,1011.43,VALID,0,VALID,97.5868,VALID,0,VALID,23.2866,VALID,221,VALID,0.832812,
2009-08-21, 00:32:04,VALID,1011.4,VALID,0,VALID,97.5868,VALID,0,VALID,23.2671,VALID,208,VALID,0.804297,
2009-08-21, 00:33:04,VALID,1011.38,VALID,0,VALID,97.5791,VALID,0,VALID,23.2866,VALID,198,VALID,0.657422,
2009-08-21, 00:34:04,VALID,1011.35,VALID,0,VALID,97.5944,VALID,0,VALID,23.2654,VALID,218,VALID,0.794141,
2009-08-21, 00:35:04,VALID,1011.33,VALID,0,VALID,97.5868,VALID,0,VALID,23.2866,VALID,214,VALID,0.930859,
2009-08-21, 00:36:04,VALID,1011.32,VALID,0,VALID,97.5791,VALID,0,VALID,23.2866,VALID,198,VALID,0.738672,
2009-08-21, 00:37:04,VALID,1011.32,VALID,0,VALID,97.602,VALID,0,VALID,23.2459,VALID,185,VALID,0.979297,
2009-08-21, 00:38:04,VALID,1011.29,VALID,0,VALID,97.5791,VALID,0,VALID,23.2671,VALID,181,VALID,0.796094,
2009-08-21, 00:39:04,VALID,1011.28,VALID,0,VALID,97.5944,VALID,0,VALID,23.2671,VALID,194,VALID,0.923828,
2009-08-21, 00:40:04,VALID,1011.26,VALID,0,VALID,97.6096,VALID,0,VALID,23.2459,VALID,188,VALID,0.922266,
2009-08-21, 00:41:04,VALID,1011.23,VALID,0,VALID,97.602,VALID,0,VALID,23.2654,VALID,210,VALID,0.583203,
2009-08-21, 00:42:04,VALID,1011.19,VALID,0,VALID,97.5944,VALID,0,VALID,23.2671,VALID,209,VALID,0.779688,
2009-08-21, 00:43:04,VALID,1011.18,VALID,0,VALID,97.6096,VALID,0,VALID,23.2459,VALID,208,VALID,0.512891,
2009-08-21, 00:44:04,VALID,1011.14,VALID,0,VALID,97.5868,VALID,0,VALID,23.2671,VALID,189,VALID,0.7375,
2009-08-21, 00:45:04,VALID,1011.1,VALID,0,VALID,97.602,VALID,0,VALID,23.2476,VALID,180,VALID,0.525781,
2009-08-21, 00:46:04,VALID,1011.08,VALID,0,VALID,97.6096,VALID,0,VALID,23.2654,VALID,180,VALID,0.483594,
2009-08-21, 00:47:04,VALID,1011.08,VALID,0,VALID,97.5868,VALID,0,VALID,23.2671,VALID,180,VALID,0.660156,
2009-08-21, 00:48:04,VALID,1011.05,VALID,0,VALID,97.602,VALID,0,VALID,23.2459,VALID,180,VALID,0.438672,
2009-08-21, 00:49:04,VALID,1011.04,VALID,0,VALID,97.602,VALID,0,VALID,23.2866,VALID,180,VALID,0.0359375,
2009-08-21, 00:50:04,VALID,1011.03,VALID,0,VALID,97.5791,VALID,0,VALID,23.2866,VALID,180,VALID,0,
2009-08-21, 00:51:04,VALID,1011.01,VALID,0,VALID,97.5791,VALID,0,VALID,23.2866,VALID,180,VALID,0,
2009-08-21, 00:52:04,VALID,1011.02,VALID,0,VALID,97.5791,VALID,0,VALID,23.2848,VALID,180,VALID,0,
2009-08-21, 00:53:04,VALID,1011.01,VALID,0,VALID,97.5563,VALID,0,VALID,23.2848,VALID,191,VALID,0.516016,
2009-08-21, 00:54:04,VALID,1011,VALID,0,VALID,97.5715,VALID,0,VALID,23.2654,VALID,192,VALID,0.633203,
2009-08-21, 00:55:04,VALID,1011.01,VALID,0,VALID,97.5563,VALID,0,VALID,23.2848,VALID,183,VALID,0.637109,
2009-08-21, 00:56:04,VALID,1010.98,VALID,0,VALID,97.5791,VALID,0,VALID,23.3061,VALID,177,VALID,0.678516,
2009-08-21, 00:57:04,VALID,1010.95,VALID,0,VALID,97.541,VALID,0,VALID,23.3061,VALID,163,VALID,0.663281,
2009-08-21, 00:58:04,VALID,1010.98,VALID,0,VALID,97.5639,VALID,0,VALID,23.3256,VALID,163,VALID,0.696484,
2009-08-21, 00:59:04,VALID,1010.98,VALID,0,VALID,97.5791,VALID,0,VALID,23.3061,VALID,165,VALID,0.596875,
2009-08-21, 01:00:04,VALID,1010.92,VALID,0,VALID,97.5791,VALID,0,VALID,23.2866,VALID,168,VALID,0.456641,
2009-08-21, 01:01:04,VALID,1010.9,VALID,0,VALID,97.5715,VALID,0,VALID,23.2866,VALID,161,VALID,0.456641,
2009-08-21, 01:02:04,VALID,1010.89,VALID,0,VALID,97.5944,VALID,0,VALID,23.2654,VALID,145,VALID,0.646484,
2009-08-21, 01:03:04,VALID,1010.89,VALID,0,VALID,97.5944,VALID,0,VALID,23.2671,VALID,149,VALID,0.608203,
2009-08-21, 01:04:04,VALID,1010.87,VALID,0,VALID,97.602,VALID,0,VALID,23.2459,VALID,149,VALID,0.488672,
2009-08-21, 01:05:04,VALID,1010.87,VALID,0,VALID,97.5944,VALID,0,VALID,23.2671,VALID,135,VALID,0.641406,
2009-08-21, 01:06:04,VALID,1010.86,VALID,0,VALID,97.5868,VALID,0,VALID,23.2866,VALID,127,VALID,0.899219,
2009-08-21, 01:07:04,VALID,1010.84,VALID,0,VALID,97.5868,VALID,0,VALID,23.2831,VALID,139,VALID,1.04219,
2009-08-21, 01:08:04,VALID,1010.81,VALID,0,VALID,97.5715,VALID,0,VALID,23.3043,VALID,178,VALID,0.3875,
2009-08-21, 01:09:04,VALID,1010.82,VALID,0,VALID,97.5639,VALID,0,VALID,23.3043,VALID,154,VALID,0.442187,
2009-08-21, 01:10:04,VALID,1010.78,VALID,0,VALID,97.5639,VALID,0.105969,VALID,23.3043,VALID,154,VALID,0.246094,
2009-08-21, 01:11:04,VALID,1010.75,VALID,0,VALID,97.5791,VALID,0.105969,VALID,23.2831,VALID,154,VALID,0.299219,
2009-08-21, 01:12:04,VALID,1010.75,VALID,0,VALID,97.5868,VALID,0.105969,VALID,23.2831,VALID,154,VALID,0.0960938,
2009-08-21, 01:13:04,VALID,1010.74,VALID,0,VALID,97.5715,VALID,0,VALID,23.2636,VALID,154,VALID,0,
2009-08-21, 01:14:04,VALID,1010.72,VALID,0,VALID,97.5791,VALID,0,VALID,23.2848,VALID,154,VALID,0,
2009-08-21, 01:15:04,VALID,1010.7,VALID,0,VALID,97.5944,VALID,0.105969,VALID,23.2654,VALID,210,VALID,0,
2009-08-21, 01:16:04,VALID,1010.68,VALID,0,VALID,97.602,VALID,0.105969,VALID,23.2441,VALID,210,VALID,0,
2009-08-21, 01:17:04,VALID,1010.7,VALID,0,VALID,97.5791,VALID,0,VALID,23.2441,VALID,212,VALID,0,
2009-08-21, 01:18:04,VALID,1010.69,VALID,0,VALID,97.5944,VALID,0.105969,VALID,23.2654,VALID,204,VALID,0,
2009-08-21, 01:19:04,VALID,1010.7,VALID,0,VALID,97.6249,VALID,0,VALID,23.2264,VALID,204,VALID,0,
2009-08-21, 01:20:04,VALID,1010.7,VALID,0,VALID,97.5944,VALID,0.105969,VALID,23.2051,VALID,204,VALID,0,
2009-08-21, 01:21:04,VALID,1010.67,VALID,0,VALID,97.6096,VALID,0,VALID,23.2264,VALID,204,VALID,0,
2009-08-21, 01:22:04,VALID,1010.65,VALID,0,VALID,97.6401,VALID,0,VALID,23.2069,VALID,204,VALID,0,
2009-08-21, 01:23:04,VALID,1010.67,VALID,0,VALID,97.6096,VALID,0,VALID,23.2069,VALID,204,VALID,0,
2009-08-21, 01:24:04,VALID,1010.64,VALID,0,VALID,97.6173,VALID,0,VALID,23.2282,VALID,204,VALID,0,
2009-08-21, 01:25:04,VALID,1010.64,VALID,0,VALID,97.602,VALID,0,VALID,23.2069,VALID,201,VALID,0,
2009-08-21, 01:26:04,VALID,1010.59,VALID,0,VALID,97.6096,VALID,0,VALID,23.2264,VALID,178,VALID,0,
2009-08-21, 01:27:04,VALID,1010.58,VALID,0,VALID,97.5868,VALID,0,VALID,23.2476,VALID,148,VALID,0,
2009-08-21, 01:28:04,VALID,1010.56,VALID,0,VALID,97.5715,VALID,0,VALID,23.2264,VALID,141,VALID,0,
2009-08-21, 01:29:04,VALID,1010.58,VALID,0,VALID,97.5868,VALID,0,VALID,23.2264,VALID,141,VALID,0,
2009-08-21, 01:30:04,VALID,1010.55,VALID,0,VALID,97.5868,VALID,0,VALID,23.2264,VALID,141,VALID,0,
2009-08-21, 01:31:04,VALID,1010.55,VALID,0,VALID,97.5868,VALID,0,VALID,23.2264,VALID,141,VALID,0,
2009-08-21, 01:32:04,VALID,1010.51,VALID,0,VALID,97.5791,VALID,0,VALID,23.2264,VALID,141,VALID,0,
2009-08-21, 01:33:04,VALID,1010.51,VALID,0,VALID,97.5944,VALID,0,VALID,23.2264,VALID,141,VALID,0,
2009-08-21, 01:34:04,VALID,1010.47,VALID,0,VALID,97.5791,VALID,0,VALID,23.2654,VALID,141,VALID,0,
2009-08-21, 01:35:04,VALID,1010.47,VALID,0,VALID,97.5639,VALID,0,VALID,23.2654,VALID,141,VALID,0,
2009-08-21, 01:36:04,VALID,1010.44,VALID,0,VALID,97.5715,VALID,0,VALID,23.2654,VALID,141,VALID,0,
2009-08-21, 01:37:04,VALID,1010.42,VALID,0,VALID,97.5791,VALID,0.105969,VALID,23.2441,VALID,141,VALID,0,
2009-08-21, 01:38:04,VALID,1010.41,VALID,0,VALID,97.5868,VALID,0.105969,VALID,23.2636,VALID,141,VALID,0,
2009-08-21, 01:39:04,VALID,1010.39,VALID,0,VALID,97.5639,VALID,0.105969,VALID,23.2636,VALID,141,VALID,0,
2009-08-21, 01:40:04,VALID,1010.34,VALID,0,VALID,97.5715,VALID,0.105969,VALID,23.2831,VALID,169,VALID,0,
2009-08-21, 01:41:04,VALID,1010.32,VALID,0,VALID,97.5715,VALID,0.105969,VALID,23.2636,VALID,186,VALID,0,
2009-08-21, 01:42:04,VALID,1010.32,VALID,0,VALID,97.5868,VALID,0.105969,VALID,23.2636,VALID,186,VALID,0,
2009-08-21, 01:43:04,VALID,1010.29,VALID,0,VALID,97.5868,VALID,0,VALID,23.2654,VALID,186,VALID,0,
2009-08-21, 01:44:04,VALID,1010.28,VALID,0,VALID,97.5868,VALID,0.105969,VALID,23.2636,VALID,186,VALID,0,
2009-08-21, 01:45:04,VALID,1010.3,VALID,0,VALID,97.5715,VALID,0.105969,VALID,23.2636,VALID,186,VALID,0,
2009-08-21, 01:46:04,VALID,1010.29,VALID,0,VALID,97.5715,VALID,0,VALID,23.2441,VALID,186,VALID,0,
2009-08-21, 01:47:04,VALID,1010.25,VALID,0,VALID,97.5715,VALID,0.105969,VALID,23.2636,VALID,186,VALID,0,
2009-08-21, 01:48:04,VALID,1010.24,VALID,0,VALID,97.5715,VALID,0.105969,VALID,23.2636,VALID,186,VALID,0,
2009-08-21, 01:49:04,VALID,1010.19,VALID,0,VALID,97.5715,VALID,0.105969,VALID,23.2441,VALID,186,VALID,0,
2009-08-21, 01:50:04,VALID,1010.19,VALID,0,VALID,97.5639,VALID,0.105969,VALID,23.2636,VALID,186,VALID,0,
2009-08-21, 01:51:04,VALID,1010.21,VALID,0,VALID,97.5944,VALID,0.105969,VALID,23.2441,VALID,186,VALID,0,
2009-08-21, 01:52:04,VALID,1010.21,VALID,0,VALID,97.5791,VALID,0,VALID,23.2459,VALID,186,VALID,0,
2009-08-21, 01:53:04,VALID,1010.22,VALID,0,VALID,97.5791,VALID,0,VALID,23.2264,VALID,186,VALID,0,
2009-08-21, 01:54:04,VALID,1010.23,VALID,0,VALID,97.5791,VALID,0,VALID,23.2476,VALID,186,VALID,0,
2009-08-21, 01:55:04,VALID,1010.24,VALID,0,VALID,97.5639,VALID,0,VALID,23.2671,VALID,186,VALID,0,
2009-08-21, 01:56:04,VALID,1010.24,VALID,0,VALID,97.541,VALID,0,VALID,23.2654,VALID,180,VALID,0,
2009-08-21, 01:57:04,VALID,1010.25,VALID,0,VALID,97.5715,VALID,0,VALID,23.2459,VALID,159,VALID,0.443359,
2009-08-21, 01:58:04,VALID,1010.21,VALID,0,VALID,97.5639,VALID,0,VALID,23.2459,VALID,135,VALID,0.537109,
2009-08-21, 01:59:04,VALID,1010.2,VALID,0,VALID,97.602,VALID,0,VALID,23.2459,VALID,101,VALID,0.737109,
2009-08-21, 02:00:04,VALID,1010.21,VALID,0,VALID,97.5791,VALID,0,VALID,23.2459,VALID,90,VALID,0.608203,
2009-08-21, 02:01:04,VALID,1010.22,VALID,0,VALID,97.5791,VALID,0,VALID,23.2654,VALID,90,VALID,0.363672,
2009-08-21, 02:02:04,VALID,1010.2,VALID,0,VALID,97.5563,VALID,0,VALID,23.2654,VALID,66,VALID,0.582812,
2009-08-21, 02:03:04,VALID,1010.19,VALID,0,VALID,97.5639,VALID,0,VALID,23.2654,VALID,52,VALID,0.466797,
2009-08-21, 02:04:04,VALID,1010.2,VALID,0,VALID,97.5486,VALID,0,VALID,23.3043,VALID,49,VALID,0.317187,
2009-08-21, 02:05:04,VALID,1010.19,VALID,0,VALID,97.541,VALID,0,VALID,23.3043,VALID,46,VALID,0.395703,
2009-08-21, 02:06:04,VALID,1010.17,VALID,0,VALID,97.5944,VALID,0,VALID,23.3061,VALID,24,VALID,0.611719,
2009-08-21, 02:07:04,VALID,1010.16,VALID,0,VALID,97.5944,VALID,0,VALID,23.2848,VALID,19,VALID,0.517578,
2009-08-21, 02:08:04,VALID,1010.15,VALID,0,VALID,97.5944,VALID,0,VALID,23.2654,VALID,20,VALID,0.269922,
2009-08-21, 02:09:04,VALID,1010.12,VALID,0,VALID,97.5944,VALID,0,VALID,23.2264,VALID,34,VALID,0.489453,
2009-08-21, 02:10:04,VALID,1010.14,VALID,0,VALID,97.6096,VALID,0,VALID,23.2264,VALID,34,VALID,0.260156,
2009-08-21, 02:11:04,VALID,1010.12,VALID,0,VALID,97.5868,VALID,0,VALID,23.2264,VALID,34,VALID,0.467187,
2009-08-21, 02:12:04,VALID,1010.09,VALID,0,VALID,97.5868,VALID,0,VALID,23.2264,VALID,44,VALID,0.594922,
2009-08-21, 02:13:04,VALID,1010.13,VALID,0,VALID,97.5791,VALID,0,VALID,23.2476,VALID,57,VALID,0.571484,
2009-08-21, 02:14:04,VALID,1010.13,VALID,0,VALID,97.6096,VALID,0,VALID,23.2069,VALID,65,VALID,0.508203,
2009-08-21, 02:15:04,VALID,1010.18,VALID,0,VALID,97.6325,VALID,0,VALID,23.1874,VALID,58,VALID,0.221484,
2009-08-21, 02:16:04,VALID,1010.21,VALID,0,VALID,97.6096,VALID,0,VALID,23.1874,VALID,75,VALID,0.0398437,
2009-08-21, 02:17:04,VALID,1010.19,VALID,0,VALID,97.6096,VALID,0,VALID,23.1679,VALID,91,VALID,0.28125,
2009-08-21, 02:18:04,VALID,1010.2,VALID,0,VALID,97.6173,VALID,0,VALID,23.1892,VALID,103,VALID,0.461328,
2009-08-21, 02:19:04,VALID,1010.18,VALID,0,VALID,97.602,VALID,0,VALID,23.1892,VALID,103,VALID,0.641406,
2009-08-21, 02:20:04,VALID,1010.18,VALID,0,VALID,97.5868,VALID,0,VALID,23.1874,VALID,106,VALID,0.64375,
2009-08-21, 02:21:04,VALID,1010.17,VALID,0,VALID,97.5715,VALID,0,VALID,23.2069,VALID,101,VALID,0.354297,
2009-08-21, 02:22:04,VALID,1010.16,VALID,0,VALID,97.5639,VALID,0,VALID,23.2282,VALID,75,VALID,0.439063,
2009-08-21, 02:23:04,VALID,1010.15,VALID,0,VALID,97.5258,VALID,0,VALID,23.2264,VALID,75,VALID,0.541797,
2009-08-21, 02:24:04,VALID,1010.14,VALID,0,VALID,97.5791,VALID,0,VALID,23.2282,VALID,77,VALID,0.646875,
2009-08-21, 02:25:04,VALID,1010.14,VALID,0,VALID,97.5639,VALID,0,VALID,23.2069,VALID,47,VALID,0.5375,
2009-08-21, 02:26:04,VALID,1010.11,VALID,0,VALID,97.5944,VALID,0,VALID,23.1874,VALID,27,VALID,0.613672,
2009-08-21, 02:27:04,VALID,1010.09,VALID,0,VALID,97.5791,VALID,0,VALID,23.2069,VALID,36,VALID,0.783203,
2009-08-21, 02:28:04,VALID,1010.09,VALID,0,VALID,97.5715,VALID,0,VALID,23.1874,VALID,37,VALID,0.375,
2009-08-21, 02:29:04,VALID,1010.07,VALID,0,VALID,97.5639,VALID,0,VALID,23.1874,VALID,34,VALID,0.560547,
2009-08-21, 02:30:04,VALID,1010.04,VALID,0,VALID,97.6096,VALID,0,VALID,23.1485,VALID,16,VALID,0.763281,
2009-08-21, 02:31:04,VALID,1009.98,VALID,0,VALID,97.6096,VALID,0,VALID,23.1485,VALID,37,VALID,0.541016,
2009-08-21, 02:32:04,VALID,1009.96,VALID,0,VALID,97.5791,VALID,0,VALID,23.1485,VALID,38,VALID,0.415625,
2009-08-21, 02:33:04,VALID,1009.91,VALID,0,VALID,97.6096,VALID,0,VALID,23.1485,VALID,71,VALID,0.421875,
2009-08-21, 02:34:04,VALID,1009.88,VALID,0,VALID,97.5715,VALID,0,VALID,23.1679,VALID,71,VALID,0,
2009-08-21, 02:35:04,VALID,1009.86,VALID,0,VALID,97.5791,VALID,0,VALID,23.1485,VALID,71,VALID,0,
2009-08-21, 02:36:04,VALID,1009.83,VALID,0,VALID,97.602,VALID,0,VALID,23.1485,VALID,97,VALID,0,
2009-08-21, 02:37:04,VALID,1009.8,VALID,0,VALID,97.5791,VALID,0,VALID,23.1485,VALID,97,VALID,0,
2009-08-21, 02:38:04,VALID,1009.79,VALID,0,VALID,97.602,VALID,0,VALID,23.1485,VALID,97,VALID,0,
2009-08-21, 02:39:04,VALID,1009.76,VALID,0,VALID,97.5944,VALID,0,VALID,23.1485,VALID,97,VALID,0,
2009-08-21, 02:40:04,VALID,1009.77,VALID,0,VALID,97.5563,VALID,0,VALID,23.1679,VALID,97,VALID,0,
2009-08-21, 02:41:04,VALID,1009.73,VALID,0,VALID,97.5639,VALID,0,VALID,23.1485,VALID,97,VALID,0,
2009-08-21, 02:42:04,VALID,1009.73,VALID,0,VALID,97.5563,VALID,0,VALID,23.1485,VALID,97,VALID,0,
2009-08-21, 02:43:04,VALID,1009.68,VALID,0,VALID,97.5639,VALID,0,VALID,23.1679,VALID,97,VALID,0,
2009-08-21, 02:44:04,VALID,1009.67,VALID,0,VALID,97.5715,VALID,0,VALID,23.1874,VALID,107,VALID,0,
2009-08-21, 02:45:04,VALID,1009.67,VALID,0,VALID,97.5563,VALID,0,VALID,23.1485,VALID,107,VALID,0,
2009-08-21, 02:46:04,VALID,1009.65,VALID,0,VALID,97.5791,VALID,0,VALID,23.1679,VALID,107,VALID,0,
2009-08-21, 02:47:04,VALID,1009.66,VALID,0,VALID,97.5563,VALID,0,VALID,23.1679,VALID,107,VALID,0,
2009-08-21, 02:48:04,VALID,1009.67,VALID,0,VALID,97.5563,VALID,0,VALID,23.1679,VALID,107,VALID,0,
2009-08-21, 02:49:04,VALID,1009.67,VALID,0,VALID,97.5715,VALID,0,VALID,23.1874,VALID,107,VALID,0,
2009-08-21, 02:50:04,VALID,1009.7,VALID,0,VALID,97.5639,VALID,0,VALID,23.1679,VALID,107,VALID,0,
2009-08-21, 02:51:04,VALID,1009.72,VALID,0,VALID,97.5791,VALID,0,VALID,23.1679,VALID,107,VALID,0,
2009-08-21, 02:52:04,VALID,1009.7,VALID,0,VALID,97.5563,VALID,0,VALID,23.1874,VALID,107,VALID,0,
2009-08-21, 02:53:04,VALID,1009.7,VALID,0,VALID,97.5639,VALID,0,VALID,23.1662,VALID,107,VALID,0,
2009-08-21, 02:54:04,VALID,1009.71,VALID,0,VALID,97.5563,VALID,0,VALID,23.1874,VALID,107,VALID,0,
2009-08-21, 02:55:04,VALID,1009.67,VALID,0,VALID,97.541,VALID,0,VALID,23.2069,VALID,107,VALID,0,
2009-08-21, 02:56:04,VALID,1009.68,VALID,0,VALID,97.5563,VALID,0,VALID,23.2069,VALID,107,VALID,0,
2009-08-21, 02:57:04,VALID,1009.67,VALID,0,VALID,97.5715,VALID,0,VALID,23.2069,VALID,107,VALID,0,
2009-08-21, 02:58:04,VALID,1009.67,VALID,0,VALID,97.5563,VALID,0,VALID,23.1874,VALID,107,VALID,0,
2009-08-21, 02:59:04,VALID,1009.67,VALID,0,VALID,97.5563,VALID,0,VALID,23.1874,VALID,107,VALID,0,
2009-08-21, 03:00:04,VALID,1009.63,VALID,0,VALID,97.5486,VALID,0,VALID,23.2087,VALID,107,VALID,0,
2009-08-21, 03:01:04,VALID,1009.63,VALID,0,VALID,97.5563,VALID,0,VALID,23.2069,VALID,107,VALID,0,
2009-08-21, 03:02:04,VALID,1009.61,VALID,0,VALID,97.5563,VALID,0,VALID,23.2069,VALID,107,VALID,0,
2009-08-21, 03:03:04,VALID,1009.61,VALID,0,VALID,97.541,VALID,0,VALID,23.2264,VALID,107,VALID,0,
2009-08-21, 03:04:04,VALID,1009.61,VALID,0,VALID,97.5181,VALID,0,VALID,23.2264,VALID,107,VALID,0,
2009-08-21, 03:05:04,VALID,1009.58,VALID,0,VALID,97.5181,VALID,0,VALID,23.2654,VALID,107,VALID,0,
2009-08-21, 03:06:04,VALID,1009.58,VALID,0,VALID,97.541,VALID,0,VALID,23.2459,VALID,107,VALID,0,
2009-08-21, 03:07:04,VALID,1009.58,VALID,0,VALID,97.5486,VALID,0,VALID,23.2671,VALID,107,VALID,0,
2009-08-21, 03:08:04,VALID,1009.61,VALID,0,VALID,97.541,VALID,0,VALID,23.2459,VALID,107,VALID,0,
2009-08-21, 03:09:04,VALID,1009.58,VALID,0,VALID,97.5563,VALID,0,VALID,23.2264,VALID,107,VALID,0,
2009-08-21, 03:10:04,VALID,1009.59,VALID,0,VALID,97.5563,VALID,0,VALID,23.2459,VALID,110,VALID,0,
2009-08-21, 03:11:04,VALID,1009.56,VALID,0,VALID,97.541,VALID,0,VALID,23.2051,VALID,128,VALID,0,
2009-08-21, 03:12:04,VALID,1009.57,VALID,0,VALID,97.5868,VALID,0,VALID,23.2087,VALID,203,VALID,0,
2009-08-21, 03:13:04,VALID,1009.61,VALID,0,VALID,97.5944,VALID,0,VALID,23.1485,VALID,212,VALID,0.229297,
2009-08-21, 03:14:04,VALID,1009.58,VALID,0,VALID,97.6096,VALID,0,VALID,23.1485,VALID,212,VALID,0.172266,
2009-08-21, 03:15:04,VALID,1009.6,VALID,0,VALID,97.5715,VALID,0,VALID,23.1874,VALID,212,VALID,0,
2009-08-21, 03:16:04,VALID,1009.6,VALID,0,VALID,97.5791,VALID,0,VALID,23.1874,VALID,209,VALID,0,
2009-08-21, 03:17:04,VALID,1009.59,VALID,0,VALID,97.5868,VALID,0,VALID,23.1892,VALID,209,VALID,0,
2009-08-21, 03:18:04,VALID,1009.59,VALID,0,VALID,97.5715,VALID,0,VALID,23.1679,VALID,209,VALID,0,
2009-08-21, 03:19:04,VALID,1009.59,VALID,0,VALID,97.5639,VALID,0,VALID,23.1679,VALID,209,VALID,0,
2009-08-21, 03:20:04,VALID,1009.59,VALID,0,VALID,97.5639,VALID,0,VALID,23.1874,VALID,209,VALID,0,
2009-08-21, 03:21:04,VALID,1009.6,VALID,0,VALID,97.5639,VALID,0,VALID,23.1874,VALID,202,VALID,0,
2009-08-21, 03:22:04,VALID,1009.57,VALID,0,VALID,97.5639,VALID,0.105969,VALID,23.2051,VALID,202,VALID,0,
2009-08-21, 03:23:04,VALID,1009.57,VALID,0,VALID,97.5715,VALID,0.105969,VALID,23.1857,VALID,202,VALID,0,
2009-08-21, 03:24:04,VALID,1009.55,VALID,0,VALID,97.5563,VALID,0.105969,VALID,23.1857,VALID,202,VALID,0,
2009-08-21, 03:25:04,VALID,1009.53,VALID,0,VALID,97.5563,VALID,0.105969,VALID,23.2069,VALID,202,VALID,0,
2009-08-21, 03:26:04,VALID,1009.49,VALID,0,VALID,97.5715,VALID,0.105969,VALID,23.1857,VALID,208,VALID,0,
2009-08-21, 03:27:04,VALID,1009.48,VALID,0,VALID,97.5563,VALID,0.105969,VALID,23.2051,VALID,332,VALID,0,
2009-08-21, 03:28:04,VALID,1009.49,VALID,0,VALID,97.5181,VALID,0.105969,VALID,23.2246,VALID,332,VALID,0,
2009-08-21, 03:29:04,VALID,1009.45,VALID,0,VALID,97.5334,VALID,0.105969,VALID,23.2654,VALID,332,VALID,0,
2009-08-21, 03:30:04,VALID,1009.48,VALID,0,VALID,97.5334,VALID,0.105969,VALID,23.2441,VALID,332,VALID,0,
2009-08-21, 03:31:04,VALID,1009.47,VALID,0,VALID,97.5334,VALID,0.105969,VALID,23.2441,VALID,332,VALID,0,
2009-08-21, 03:32:04,VALID,1009.48,VALID,0,VALID,97.5715,VALID,0.105969,VALID,23.2654,VALID,332,VALID,0,
2009-08-21, 03:33:04,VALID,1009.51,VALID,0,VALID,97.5486,VALID,0.105969,VALID,23.2246,VALID,352,VALID,0,
2009-08-21, 03:34:04,VALID,1009.52,VALID,0,VALID,97.5715,VALID,0.105969,VALID,23.2246,VALID,355,VALID,0,
2009-08-21, 03:35:04,VALID,1009.55,VALID,0,VALID,97.5639,VALID,0.105969,VALID,23.2459,VALID,39,VALID,0,
2009-08-21, 03:36:04,VALID,1009.55,VALID,0,VALID,97.5639,VALID,0.105969,VALID,23.2051,VALID,39,VALID,0,
2009-08-21, 03:37:04,VALID,1009.56,VALID,0,VALID,97.5791,VALID,0,VALID,23.2069,VALID,39,VALID,0,
2009-08-21, 03:38:04,VALID,1009.55,VALID,0,VALID,97.5639,VALID,0,VALID,23.2069,VALID,43,VALID,0,
2009-08-21, 03:39:04,VALID,1009.56,VALID,0,VALID,97.5868,VALID,0,VALID,23.2069,VALID,67,VALID,0,
2009-08-21, 03:40:04,VALID,1009.55,VALID,0,VALID,97.5639,VALID,0,VALID,23.1874,VALID,84,VALID,0.547266,
2009-08-21, 03:41:04,VALID,1009.51,VALID,0,VALID,97.5715,VALID,0,VALID,23.1874,VALID,84,VALID,0.614453,
2009-08-21, 03:42:04,VALID,1009.5,VALID,0,VALID,97.5715,VALID,0,VALID,23.1874,VALID,84,VALID,0.641406,
2009-08-21, 03:43:04,VALID,1009.51,VALID,0,VALID,97.5639,VALID,0,VALID,23.2087,VALID,84,VALID,0.785156,
2009-08-21, 03:44:04,VALID,1009.5,VALID,0,VALID,97.5715,VALID,0,VALID,23.1874,VALID,82,VALID,0.764844,
2009-08-21, 03:45:04,VALID,1009.49,VALID,0,VALID,97.5639,VALID,0,VALID,23.2069,VALID,72,VALID,0.658984,
2009-08-21, 03:46:04,VALID,1009.48,VALID,0,VALID,97.5639,VALID,0,VALID,23.1467,VALID,69,VALID,0.750391,
2009-08-21, 03:47:04,VALID,1009.5,VALID,0,VALID,97.5868,VALID,0,VALID,23.1679,VALID,52,VALID,0.861328,
2009-08-21, 03:48:04,VALID,1009.46,VALID,0,VALID,97.602,VALID,0,VALID,23.1077,VALID,65,VALID,0.776172,
2009-08-21, 03:49:04,VALID,1009.47,VALID,0,VALID,97.6173,VALID,0,VALID,23.129,VALID,64,VALID,0.523828,